Flag for Poland Weather past 2 weeks in Rybnik, Poland

Now
63 °F

Broken clouds.


Feels Like: 63 °F
Forecast: 49 / 58 °F
Wind: 13 mph from West

Location: Katowice Airport

Current Time: Sep 21, 2014 at 12:12:44 PM

Latest Report: Sep 21, 2014 at 11:30 AM


Visibility: 4 mi

Pressure: 29.86 "Hg

Humidity: 88%

Dew point: 59 °F

Location of RybnikLocation

Historic Weather in Rybnik — Graph

°F

Rybnik temperature yesterday

Maximum temperature yesterday: 66 °F (at 3:00 PM)
Minimum temperature yesterday: 55 °F (at 9:30 PM)
Average temperature yesterday: 59 °F

Past Weeks' High & Low Weather Summary

 TemperatureHumidityPressure
High79 °F (Sep 8, 3:00 PM)100% (Sep 7, 4:30 AM)30.27 "Hg (Sep 7, 4:30 AM)
Low46 °F (Sep 13, 5:30 AM)38% (Sep 19, 1:00 PM)29.86 "Hg (Sep 21, 4:00 AM)
Average62 °F80%30.03 "Hg
* Reported Sep 6 11:00 AM — Sep 21 11:00 AM, Rybnik, Weather by CustomWeather, © 2014

Note: Actual official high and low records may vary slightly from our data, if they occured in-between our weather recording intervals... More about our weather records

Advertising

Rybnik weather history for previous 24 hours

 ConditionsComfort  
Time TempWeatherWind HumidityBarometerVisibility
11:00 AM
Sep 21
63 °FBroken clouds.15 mph88%29.86 "Hg4 mi
10:30 AM63 °FBroken clouds.12 mph88%29.86 "Hg4 mi
10:00 AM63 °FBroken clouds.9 mph94%29.86 "Hg4 mi
9:30 AM63 °FBroken clouds.9 mph94%29.86 "Hg4 mi
9:00 AM61 °FPartly sunny.9 mph100%29.86 "Hg4 mi
8:30 AM61 °FFog.6 mph94%29.86 "Hg1 mi
8:00 AM59 °FFog.7 mph100%29.86 "Hg0 mi
7:30 AM59 °FLight rain. Fog.5 mph100%29.86 "Hg1 mi
7:00 AM59 °FLight rain. Fog.5 mph100%29.86 "Hg1 mi
6:30 AM59 °FLight rain. Fog.5 mph94%29.86 "Hg1 mi
6:00 AM59 °FSprinkles. Fog.3 mph94%29.86 "Hg1 mi
5:30 AM57 °FFog.3 mph100%29.86 "Hg1 mi
5:00 AM57 °FFog.2 mph100%29.86 "Hg1 mi
4:30 AM59 °FLight rain. Fog.3 mph94%29.86 "Hg1 mi
4:00 AM59 °FSprinkles. Fog.6 mph94%29.86 "Hg1 mi
3:30 AM59 °FFog.6 mph94%29.89 "Hg1 mi
3:00 AM59 °FFog.3 mph94%29.89 "Hg1 mi
2:30 AM57 °FFog.2 mph94%29.89 "Hg1 mi
2:00 AM57 °FFog.2 mph100%29.92 "Hg1 mi
1:30 AM57 °FFog.2 mph94%29.89 "Hg1 mi
1:00 AM55 °FFog.2 mph100%29.92 "Hg1 mi
12:30 AM59 °FCool.2 mph94%29.92 "Hg1 mi
12:00 AM59 °FFog.5 mph94%29.92 "Hg1 mi
11:30 PM
Sep 20
59 °FCool.5 mph94%29.92 "Hg1 mi
11:00 PM57 °FFog.3 mph100%29.92 "Hg1 mi
10:30 PM57 °FFog.3 mph100%29.92 "Hg1 mi
10:00 PM57 °FFog.3 mph94%29.92 "Hg1 mi
9:30 PM55 °FFog.3 mph100%29.95 "Hg2 mi
9:00 PM57 °FFog.2 mph94%29.95 "Hg2 mi
8:30 PM61 °FFog.5 mph88%29.95 "Hg2 mi
8:00 PM63 °FFog.5 mph88%29.95 "Hg2 mi
3:30 PM66 °FScattered clouds.1 mph78%29.95 "HgN/A
3:00 PM66 °FBroken clouds.3 mph78%29.95 "HgN/A
2:30 PM64 °FBroken clouds.5 mph83%29.95 "Hg5 mi
2:00 PM63 °FBroken clouds.5 mph88%29.98 "Hg5 mi
1:30 PM63 °FPartly sunny.5 mph88%29.98 "Hg5 mi
1:00 PM63 °FBroken clouds.3 mph88%29.98 "Hg5 mi
12:30 PM61 °FBroken clouds.6 mph94%29.98 "Hg5 mi
12:00 PM61 °FFog.3 mph94%29.95 "Hg2 mi
Weather by CustomWeather, © 2014

See weather overviewHow to use our weather pages